Theta_e
317 314 313 315 319 324 323 322 319 320 320 312 313 314 316 319 320 320 321 321 320 322 327 332 332 334 337 336 338 340 340 342 342 336 335 345 346 346 348 346 345 344 346 347 349 347 346 348 348 347 346 344 338 334 330 326 325 330 333 334 336 336 336 336 335 335 334 333 331 330 330 332 334 335 336 338 338 336 337 339 339 340 341 341 341 341 340 339 339 336 332 329 332 335 336 338 337
319 316 314 317 322 324 322 322 318 316 315 311 312 315 317 319 320 320 322 320 320 322 328 333 333 336 336 335 336 337 341 342 343 342 342 346 345 347 346 344 344 343 346 350 351 348 347 348 347 346 346 344 339 335 333 328 325 329 335 336 337 337 338 337 337 337 336 336 334 333 333 334 335 337 338 339 339 338 340 340 337 339 341 341 342 342 340 337 338 338 335 331 332 336 336 336 335
319 317 318 321 323 322 322 322 316 312 312 310 312 317 318 319 320 321 321 319 320 322 329 333 333 337 335 336 335 336 342 342 341 341 342 345 346 346 344 344 343 343 347 350 350 348 348 346 345 346 346 345 341 337 334 331 328 330 336 337 337 337 336 336 336 337 337 337 337 337 335 336 337 338 339 339 340 341 341 339 337 339 340 340 342 342 340 337 338 339 336 330 331 335 336 336 336
316 318 320 321 322 321 321 321 318 313 311 310 311 317 319 319 321 320 320 319 319 321 328 333 334 337 337 339 338 339 343 342 342 341 342 345 346 345 344 343 342 344 346 347 346 348 348 345 345 345 345 345 342 338 335 333 335 335 338 338 337 337 336 336 336 336 336 336 337 338 338 338 338 339 339 340 341 341 340 338 338 339 339 339 340 340 339 338 339 340 335 329 332 335 336 336 335
315 318 319 320 321 321 321 320 318 314 312 312 312 316 320 320 320 320 320 319 320 321 326 331 335 338 339 341 340 341 342 341 343 343 343 345 345 344 343 342 341 343 345 344 344 347 347 344 345 345 344 345 344 342 339 335 337 338 336 338 339 339 338 337 337 335 335 335 336 337 338 338 339 339 339 340 340 339 338 338 337 338 340 338 339 339 339 339 340 341 335 328 331 333 334 334 333
317 319 318 320 320 320 320 317 315 313 315 318 315 317 320 319 320 320 319 319 320 322 324 329 334 337 339 340 339 340 341 342 343 344 345 344 344 343 342 341 340 341 344 345 345 346 346 344 344 344 344 344 344 344 342 337 338 337 335 339 341 341 340 338 336 334 334 334 335 336 338 338 339 339 340 340 340 339 337 338 337 338 340 338 339 339 338 339 340 340 335 328 329 332 331 331 331
318 319 319 320 320 319 318 314 313 314 317 319 318 319 320 319 320 319 319 319 321 325 325 329 332 335 340 339 340 340 340 343 344 345 345 344 343 342 340 339 340 342 345 346 346 346 345 344 343 343 343 343 343 343 343 340 339 336 335 340 340 340 339 337 335 333 333 333 334 336 336 336 337 338 338 339 339 338 336 337 337 338 339 338 339 339 338 339 339 339 337 332 331 331 328 331 333
318 319 319 320 319 319 316 314 315 316 317 318 319 319 319 319 319 319 319 319 321 325 326 329 329 334 340 339 341 342 342 344 344 344 344 343 342 341 339 339 340 342 345 346 346 347 345 343 342 342 341 342 343 343 343 341 339 336 337 339 340 339 338 336 334 332 333 333 333 333 333 334 334 335 336 337 338 336 335 337 338 339 338 338 338 338 338 339 339 338 337 335 332 331 329 333 335
318 319 318 318 319 317 314 314 315 317 318 318 318 319 319 319 319 319 318 318 319 324 328 331 329 334 340 339 340 342 344 344 343 343 343 341 342 340 339 338 340 343 345 345 344 346 345 342 342 341 341 343 342 342 342 342 340 338 338 339 339 339 337 336 334 332 332 332 331 331 332 333 335 336 336 337 338 336 334 336 338 338 338 339 339 338 338 338 339 337 336 335 332 332 332 334 335
319 318 319 318 317 314 311 313 314 317 318 318 319 318 319 318 319 318 318 319 321 328 332 333 332 335 339 339 341 342 342 343 343 342 341 341 341 339 338 338 340 343 344 344 342 344 344 341 340 341 340 340 341 341 341 341 340 338 338 339 339 338 337 336 334 333 333 331 331 333 334 335 336 337 336 337 337 337 335 336 337 338 338 339 339 339 338 339 339 334 333 333 332 334 334 334 334
318 318 318 317 314 311 310 312 314 318 318 318 319 318 320 322 322 320 318 321 324 331 333 334 337 337 339 340 341 340 340 342 342 341 340 339 339 338 338 339 340 342 343 344 343 342 342 339 338 339 338 338 339 340 339 339 338 338 338 339 338 337 337 336 335 334 333 333 333 336 336 336 336 335 335 335 336 337 336 336 336 337 338 337 338 338 338 338 333 328 332 334 333 335 335 334 335
318 317 318 315 313 312 312 313 315 318 319 318 318 321 327 327 325 323 321 323 326 333 334 334 337 337 339 340 340 341 341 342 341 340 339 338 338 337 337 339 340 341 342 342 342 342 342 341 338 336 336 336 337 338 338 338 338 338 338 338 338 337 337 336 335 334 333 334 334 336 336 335 335 334 334 335 335 336 336 335 336 337 337 336 334 331 329 327 322 325 333 335 335 336 335 335 335
318 318 317 315 315 316 315 314 316 317 318 319 321 327 331 330 328 327 326 327 331 335 335 334 334 337 340 340 340 341 342 342 340 339 339 338 338 338 338 339 340 341 341 341 342 342 342 342 341 338 337 337 337 338 338 338 338 339 338 338 337 337 337 336 335 335 334 334 335 336 335 335 335 335 335 335 335 336 335 334 336 337 336 333 329 325 322 318 319 327 334 335 336 336 335 334 333
318 318 317 316 317 317 315 315 316 316 317 321 327 331 334 332 332 331 329 332 335 336 336 335 333 337 339 340 340 340 341 341 340 340 340 339 339 338 338 339 340 340 340 340 341 341 341 341 341 339 339 340 339 339 339 339 339 339 339 338 337 337 337 336 336 336 335 335 335 336 335 335 335 336 335 335 334 334 334 333 335 337 335 330 329 328 324 317 320 330 334 335 336 336 335 334 333
318 318 318 317 315 315 315 316 316 315 317 325 330 332 334 333 335 333 333 335 337 335 335 336 334 336 338 339 340 341 341 340 341 340 341 340 339 338 338 339 339 339 339 339 339 340 340 340 340 340 341 341 340 341 340 340 340 340 339 338 338 338 337 337 336 336 336 335 335 336 335 335 335 336 336 335 334 333 334 333 333 336 335 331 331 331 327 320 321 331 335 334 335 335 336 334 334
317 317 318 317 314 313 315 317 317 317 320 325 330 332 334 334 335 335 335 336 337 335 336 337 335 336 336 336 340 341 340 341 341 341 342 341 339 338 338 338 338 338 339 338 338 339 339 339 340 341 342 342 341 340 341 341 340 340 339 338 338 338 337 336 336 336 336 336 336 336 336 336 336 336 336 336 336 335 336 336 334 335 335 332 333 333 331 326 324 330 333 333 334 334 334 333 333
317 317 317 315 313 314 315 318 317 318 322 326 329 332 332 333 333 334 335 335 337 337 337 336 336 336 335 336 340 340 341 341 341 340 341 341 339 339 339 338 338 338 338 338 338 338 338 339 340 341 342 342 341 340 339 340 339 339 339 338 338 337 335 335 336 337 337 336 335 336 337 337 336 335 337 337 337 336 335 335 333 334 335 333 332 333 333 330 327 330 332 332 333 333 332 331 331
315 316 316 314 315 316 316 318 318 318 322 325 329 330 329 330 332 332 333 335 335 336 336 336 336 337 336 339 340 340 341 341 340 340 340 340 340 341 340 339 339 338 338 338 338 339 339 340 341 341 341 341 341 340 339 339 338 339 339 338 338 337 336 336 338 338 339 338 336 338 339 339 337 337 337 337 338 338 335 333 334 334 335 334 332 333 334 334 331 330 331 331 332 331 331 331 332
315 317 316 315 317 316 316 317 317 318 319 323 328 330 328 329 330 331 332 332 332 334 337 337 335 337 338 340 340 340 341 341 339 339 340 340 340 342 342 341 341 340 340 340 340 340 341 341 341 341 341 341 341 341 340 340 339 339 339 338 338 337 336 338 338 338 339 339 338 339 340 340 339 339 338 338 337 338 335 332 334 334 334 336 333 331 333 335 334 333 333 331 330 330 331 333 334
315 316 316 315 316 316 316 316 316 317 317 321 328 329 329 329 329 329 328 329 331 333 335 337 337 338 339 338 338 339 340 340 339 339 341 341 342 342 342 342 341 341 341 340 340 340 340 340 341 341 341 341 340 340 340 340 339 339 339 338 338 338 337 338 338 338 339 339 339 338 338 339 340 339 338 337 337 338 336 334 334 334 335 337 335 331 331 333 332 332 332 331 331 330 331 332 332
315 316 316 315 315 315 315 315 315 316 316 320 327 330 331 330 329 328 327 330 332 331 332 336 337 337 337 337 337 339 338 336 340 342 341 342 343 343 342 342 342 342 341 340 340 340 340 340 340 340 340 340 339 339 339 339 339 339 339 338 338 338 338 338 338 338 339 339 338 338 338 339 339 339 338 338 338 338 338 337 336 336 336 336 335 333 333 330 330 332 331 330 333 333 331 331 331
315 315 315 315 315 315 315 314 314 315 315 321 328 330 329 331 332 332 332 334 334 331 331 334 336 335 334 334 337 340 338 337 340 340 337 339 341 340 339 339 339 338 338 338 339 339 340 340 340 340 339 339 339 339 339 338 338 338 338 338 338 337 338 337 337 338 338 338 338 338 338 339 339 338 338 338 338 338 338 338 338 337 337 337 335 335 335 332 331 334 332 330 333 334 332 331 331
314 315 315 314 315 316 315 314 313 313 317 324 328 329 329 332 334 334 335 335 334 331 331 334 335 334 333 334 337 339 340 341 341 338 335 335 336 334 333 335 335 334 334 335 335 337 339 340 339 340 340 339 339 339 338 338 338 338 338 337 337 337 337 337 337 337 337 337 337 337 338 338 338 338 338 338 338 338 338 338 338 338 337 337 337 336 336 334 334 335 334 332 333 333 333 332 331
314 314 314 316 318 318 315 314 313 313 321 328 328 329 331 333 334 334 335 334 333 333 334 336 336 335 335 335 336 338 340 342 339 336 334 333 333 333 334 335 335 335 336 336 336 338 340 340 339 340 339 339 339 338 338 338 338 338 337 336 336 336 336 336 336 337 337 337 337 337 337 337 337 337 337 337 337 337 337 337 338 337 337 337 337 337 336 336 336 336 335 335 334 333 333 332 331
315 316 317 319 321 320 317 315 314 316 324 328 328 330 331 332 333 334 335 334 334 334 335 337 337 336 335 334 335 339 341 342 339 336 335 333 334 335 335 336 336 337 337 337 337 338 339 339 339 340 339 339 338 338 338 338 337 337 337 336 337 336 336 337 336 337 336 336 337 336 336 337 337 337 337 337 337 337 336 336 336 337 336 337 337 337 337 336 336 336 336 336 336 335 334 333 333
317 319 320 321 321 320 319 316 316 322 326 328 330 331 330 330 332 334 335 335 334 334 334 334 336 336 335 334 335 338 340 342 340 338 337 335 335 336 336 336 336 336 337 338 338 338 339 339 339 340 339 339 339 339 338 338 338 337 337 337 337 336 336 337 337 337 337 336 336 335 335 336 336 336 336 336 336 336 336 336 336 336 336 336 336 336 335 336 336 335 335 336 336 336 335 335 335
317 321 320 320 321 321 321 318 318 324 328 328 331 332 331 330 332 334 334 335 333 334 334 333 334 334 333 332 334 338 339 340 340 339 338 337 336 337 336 337 338 337 337 338 338 339 339 339 339 339 339 339 339 339 338 338 338 337 337 337 337 337 337 337 337 336 335 335 334 334 334 335 335 336 336 336 335 335 335 336 336 336 336 335 335 335 334 334 334 335 335 335 336 336 335 336 336
318 320 319 319 320 322 322 320 319 324 327 328 330 332 332 331 332 333 333 333 332 333 334 332 332 332 329 329 332 337 337 337 339 339 339 338 337 336 336 337 338 339 338 336 336 339 340 339 339 339 339 339 339 339 338 339 338 337 337 337 337 337 337 337 336 334 334 333 333 332 333 333 334 334 336 336 335 335 336 335 335 335 335 335 335 335 335 334 334 334 334 334 335 335 335 336 336
318 318 318 318 320 322 323 322 321 323 325 327 327 329 332 333 332 333 332 331 332 333 333 331 331 331 329 330 332 335 336 334 336 338 338 337 336 336 336 336 337 338 337 336 338 340 339 340 339 339 339 339 339 339 338 338 338 337 337 337 337 335 337 337 335 333 333 332 332 332 332 332 333 333 334 335 334 335 335 335 335 335 335 335 335 335 335 334 334 334 334 334 334 335 335 336 337
317 318 318 317 318 322 324 323 323 322 323 325 322 326 332 334 332 333 333 332 333 333 332 332 331 332 332 333 333 334 336 336 337 338 337 337 336 335 336 336 338 338 337 337 339 340 339 340 339 338 339 338 338 338 338 338 338 338 337 337 337 336 337 336 335 333 332 332 331 331 332 332 332 332 333 333 333 334 334 334 334 334 333 334 334 334 335 334 334 334 334 334 335 335 335 336 337
317 317 316 316 318 321 325 324 324 323 323 323 322 328 333 333 331 333 333 332 333 333 333 333 332 333 334 334 334 334 336 338 338 338 337 338 337 336 336 336 337 338 339 339 339 340 340 340 338 338 338 338 338 338 338 338 338 338 337 337 336 336 336 336 335 333 332 331 331 331 331 331 331 332 332 332 332 332 333 332 332 332 331 332 333 334 334 334 334 334 334 334 335 335 334 335 336
318 315 313 315 317 320 326 325 325 324 324 324 323 331 334 332 331 333 333 333 333 334 334 333 332 333 333 334 333 333 335 336 336 337 338 338 337 336 337 336 336 337 339 339 340 340 340 340 339 339 339 338 338 338 338 338 338 338 337 337 336 336 337 336 335 333 332 331 330 330 331 331 331 331 331 331 331 331 331 331 330 331 330 331 332 333 334 334 334 334 334 334 335 335 335 335 335
317 315 312 314 315 318 325 326 326 325 326 327 326 331 333 331 332 332 333 333 333 334 334 334 333 333 332 332 332 332 333 335 335 336 336 337 336 336 337 336 336 337 338 338 339 340 339 340 340 339 339 339 338 338 338 338 338 338 337 337 336 336 337 335 334 333 332 331 331 331 331 331 331 330 331 330 331 330 330 330 330 330 330 331 331 331 333 334 334 334 335 334 334 335 335 336 335
315 317 315 317 317 317 324 327 326 326 328 330 329 331 332 331 331 332 333 333 333 335 335 335 334 333 332 330 330 332 333 333 335 335 335 335 335 335 336 335 336 337 337 337 338 339 338 338 340 339 339 339 338 338 338 338 338 337 337 337 336 336 336 335 334 333 332 331 331 331 331 331 331 331 330 330 330 330 330 330 329 330 330 330 330 330 331 332 332 334 334 333 333 334 334 335 335
313 315 315 318 321 319 323 326 326 327 328 329 330 330 331 331 330 331 333 333 334 335 335 335 334 333 332 330 329 330 330 331 332 334 333 334 334 334 334 335 335 335 334 335 336 338 337 337 338 339 338 338 338 338 338 337 336 336 337 337 337 336 336 335 334 333 332 331 331 332 331 331 330 330 330 330 330 330 330 329 329 329 329 329 329 329 330 330 331 332 332 332 332 332 332 333 333
316 317 317 318 321 322 325 327 326 327 328 328 329 329 330 331 330 331 332 332 334 334 334 334 333 332 331 330 329 329 329 329 330 331 331 332 333 333 333 333 334 334 333 334 334 335 335 335 337 337 338 338 337 337 337 337 336 335 336 336 337 337 336 336 335 334 333 332 332 332 331 330 329 330 330 330 330 329 330 329 329 329 329 329 329 329 329 330 330 330 330 330 330 331 330 331 331
318 320 321 321 323 324 326 326 325 326 327 328 329 330 331 331 330 330 330 331 332 333 334 333 332 331 331 330 330 330 329 329 330 330 330 331 332 332 333 332 333 333 333 333 333 334 334 334 335 336 337 337 336 336 336 336 336 335 335 336 336 336 336 335 335 335 333 332 332 331 330 330 329 330 330 330 330 330 330 329 330 329 329 329 329 329 330 329 329 329 329 329 329 330 329 329 330
320 320 321 322 322 324 326 325 325 324 327 328 328 330 331 331 329 329 329 330 332 333 333 332 330 331 331 331 331 330 329 329 331 331 331 331 331 331 331 331 331 332 332 332 332 333 333 334 334 335 335 335 335 335 335 336 336 336 335 335 334 334 334 334 334 334 332 331 332 331 330 330 330 330 330 330 330 329 329 329 329 329 329 329 329 329 329 329 328 328 328 328 328 328 329 329 329
320 319 320 322 323 324 326 325 325 325 326 327 327 329 331 331 330 329 329 329 330 331 332 331 331 331 331 331 331 330 328 328 329 330 330 331 330 330 330 330 330 330 330 329 330 331 332 332 332 333 334 334 334 334 334 335 335 336 335 335 334 333 333 334 333 333 332 331 331 331 330 330 330 330 330 330 330 329 329 328 328 329 329 329 329 329 329 328 328 328 328 328 328 328 328 328 329
319 319 318 321 323 324 326 325 325 325 325 326 326 327 329 329 330 330 329 329 329 329 330 330 330 331 330 330 330 330 330 329 328 329 330 330 330 329 329 329 329 329 329 329 329 329 329 330 331 332 332 333 333 333 333 334 334 335 335 335 335 333 333 333 333 332 332 331 331 331 330 330 330 329 329 329 329 329 329 328 328 328 329 329 329 329 329 329 328 328 328 328 328 327 327 327 328
318 320 318 321 324 323 325 325 326 326 324 325 325 327 329 328 329 330 328 328 328 328 328 328 328 328 329 329 329 329 329 328 328 328 329 330 328 327 327 328 328 328 328 328 329 328 328 329 329 330 331 332 332 332 332 333 333 335 335 335 335 335 334 333 332 332 331 331 331 331 331 330 330 329 329 328 328 328 329 329 329 328 329 329 328 328 329 329 329 328 328 328 328 327 326 326 327
317 321 320 323 325 324 326 325 325 327 325 324 322 326 330 330 329 330 328 327 327 327 327 327 327 327 327 328 327 327 327 327 327 327 327 328 327 327 327 326 327 327 328 328 328 328 328 328 328 329 330 330 330 330 330 331 332 334 335 335 334 334 334 332 332 332 331 330 331 331 332 331 330 330 329 329 328 327 328 328 329 329 329 329 329 328 329 329 329 328 327 327 327 327 325 324 326
317 321 322 324 323 322 326 326 324 326 325 324 322 325 330 330 329 329 328 328 327 326 327 326 326 325 325 325 326 326 325 325 326 326 327 327 326 326 326 325 325 326 327 328 328 328 327 327 327 328 327 327 327 327 327 329 331 332 333 333 331 331 332 333 334 334 332 331 331 332 332 332 331 330 330 329 328 327 327 328 328 329 328 329 329 329 329 329 328 327 327 326 326 326 325 323 323
318 321 322 324 321 319 323 325 324 325 323 323 323 322 327 329 329 327 326 327 327 326 326 325 324 324 324 324 325 324 324 324 323 324 326 326 326 326 325 324 324 325 326 328 328 327 327 327 327 327 327 326 326 326 326 328 329 330 331 331 329 328 328 330 332 333 333 332 333 332 332 332 332 331 330 329 328 327 327 327 328 329 328 328 328 328 328 328 328 327 327 327 326 325 324 323 323
320 322 321 322 321 320 322 323 322 322 322 324 324 322 326 329 327 326 326 327 327 327 326 325 324 324 324 324 323 323 323 323 323 323 324 325 324 324 323 323 323 324 325 327 327 327 327 327 326 326 326 326 326 326 326 327 327 328 329 329 329 329 328 328 329 330 330 331 332 333 334 333 333 332 331 330 329 327 326 327 327 328 328 328 328 327 328 328 328 328 327 327 326 325 323 322 323
320 321 322 320 320 322 322 322 320 319 323 325 323 321 325 329 327 325 326 327 327 327 325 325 325 324 324 323 322 322 321 321 322 323 324 323 323 323 322 323 323 324 324 325 325 326 326 326 326 326 326 326 326 326 326 327 326 327 327 327 328 329 329 329 329 329 329 328 327 329 332 333 333 333 332 331 330 328 327 327 327 327 328 328 328 327 327 328 328 328 328 327 326 325 323 322 322
320 320 321 320 320 321 321 321 319 319 323 324 322 321 323 327 327 325 326 326 326 326 325 325 325 323 323 322 321 321 320 320 321 322 323 322 322 321 321 322 322 323 323 324 324 324 325 325 325 326 326 326 326 326 326 326 326 326 326 326 326 327 327 327 327 328 328 327 325 326 328 329 330 332 332 332 331 330 328 328 328 328 328 328 328 328 327 328 327 328 328 327 327 325 324 323 322
320 320 320 319 319 320 319 319 318 320 324 324 321 321 322 325 327 325 325 325 324 325 325 325 324 322 322 321 320 320 320 319 319 320 322 322 321 321 321 321 322 322 323 323 323 323 323 324 324 324 325 325 325 325 325 325 325 325 325 325 325 326 326 326 326 326 327 326 326 326 326 326 326 327 330 331 331 331 330 330 329 329 328 328 329 328 328 327 327 327 327 327 327 325 324 323 323
320 319 318 316 317 318 319 319 319 321 324 323 321 321 322 324 326 325 325 323 323 325 324 323 322 322 322 320 320 320 319 319 318 319 320 321 320 320 320 320 321 321 322 322 322 322 323 322 322 322 323 324 324 324 324 324 325 324 324 325 324 324 324 325 325 325 325 325 325 326 325 325 325 325 327 328 328 329 330 330 331 330 330 329 329 329 328 328 327 327 327 327 326 325 324 324 324
318 318 316 314 315 317 318 319 320 323 324 321 320 322 323 324 325 324 324 323 323 324 323 323 322 322 321 319 319 319 318 318 318 317 319 320 319 319 319 320 320 321 321 321 321 321 322 322 322 321 321 322 322 322 322 323 323 324 324 324 324 324 324 324 324 324 324 324 324 324 324 324 324 324 326 326 326 327 328 330 330 330 330 330 330 329 329 328 327 327 326 326 326 325 325 324 323
317 318 317 315 314 316 318 318 318 322 323 321 321 323 322 325 326 324 324 323 322 323 322 322 322 321 320 319 317 318 318 317 317 317 319 320 319 318 319 319 319 320 320 319 319 320 321 321 321 321 320 320 321 321 321 321 322 322 322 322 322 323 322 323 323 323 323 323 323 323 323 323 323 323 324 324 325 325 326 327 328 327 328 329 330 330 329 328 328 327 326 326 326 325 325 325 324
318 318 317 317 316 316 319 321 322 322 321 320 321 323 322 324 325 322 323 323 322 322 322 321 321 319 319 318 317 317 317 317 317 318 319 319 318 318 319 319 318 318 318 318 318 320 320 320 320 320 319 319 319 320 320 320 320 321 321 321 321 321 321 322 322 322 322 323 323 324 324 323 323 322 322 323 324 324 325 326 326 326 326 327 328 329 330 329 328 328 327 326 326 325 325 325 324
318 316 317 318 318 318 318 321 323 321 318 319 321 322 322 323 324 322 322 323 322 321 321 320 320 319 319 318 317 317 317 317 318 318 319 319 317 317 317 317 317 317 317 317 318 320 319 319 319 319 319 319 318 318 319 319 319 319 319 319 319 319 319 320 321 321 321 322 323 323 323 323 322 322 322 322 323 323 323 324 325 326 325 326 327 328 329 329 328 328 327 326 326 325 325 325 323
317 316 317 318 318 319 317 318 321 318 319 322 320 321 323 323 324 324 323 323 323 321 320 320 320 319 318 317 317 317 317 317 318 318 319 318 317 317 316 316 316 316 315 316 317 318 317 317 317 317 318 318 318 318 318 318 318 318 318 317 317 317 317 318 318 319 320 321 321 322 322 322 322 322 322 322 322 322 323 323 323 324 325 326 327 327 328 328 328 328 327 327 326 325 325 324 323
318 317 318 319 318 318 317 318 320 317 318 322 320 320 322 321 323 324 324 324 324 322 321 320 319 318 317 316 316 316 316 318 318 318 318 317 316 316 316 315 315 314 314 315 316 316 316 315 315 315 316 317 317 316 316 316 316 316 316 316 316 316 316 316 317 318 318 319 320 320 321 321 321 322 321 322 322 322 322 322 323 323 325 326 326 326 327 327 327 326 327 327 326 325 325 324 323
318 317 318 320 319 318 317 317 318 316 317 319 320 321 320 319 322 324 324 324 324 322 321 319 318 317 316 316 316 316 317 318 317 317 317 317 316 315 315 315 314 314 314 314 314 315 315 314 313 314 315 316 316 315 315 315 315 315 315 315 315 315 316 316 316 317 317 317 318 318 319 319 320 320 321 321 322 322 322 322 323 323 324 325 325 325 325 326 326 325 325 326 325 324 324 323 323
317 318 318 319 319 318 318 318 317 316 315 316 319 320 318 319 322 322 323 323 322 322 321 319 318 317 316 316 316 316 317 318 318 317 318 317 316 315 315 314 314 314 314 313 313 313 313 313 313 314 315 315 315 314 314 314 314 314 314 314 314 315 315 315 316 316 316 316 316 316 317 318 318 319 320 320 321 321 322 322 322 323 323 324 324 324 324 324 324 324 324 324 324 323 322 322 322
318 318 318 318 318 318 318 318 318 316 315 315 316 318 319 321 321 321 321 322 321 320 320 318 317 317 316 317 317 317 317 318 318 318 318 317 316 315 314 314 314 314 314 313 313 312 312 312 313 313 313 313 313 313 312 312 313 313 313 313 313 313 314 314 315 315 316 315 315 316 316 316 317 318 318 319 320 320 321 321 322 322 323 323 324 324 323 323 322 323 323 323 323 322 321 321 321
Wind_Speed
3 4 4 4 4 7 7 5 5 3 4 4 3 2 5 2 2 3 1 4 4 6 6 3 1 2 3 1 5 9 6 4 4 1 1 4 4 6 8 8 8 9 11 13 15 15 17 18 18 20 19 17 17 16 16 16 17 18 17 17 16 15 15 15 15 14 13 12 12 12 12 11 11 10 10 10 10 10 9 9 9 9 8 9 9 10 10 10 10 9 9 9 10 11 12 13 14
4 5 3 4 6 7 3 2 6 3 5 5 4 1 4 4 5 4 3 7 7 7 5 3 2 3 4 4 5 4 6 9 9 6 6 8 8 9 10 9 8 9 11 13 14 14 15 16 16 17 17 16 16 16 16 16 17 18 18 17 16 16 15 14 14 13 12 12 11 11 11 11 10 9 9 9 9 9 8 8 9 9 9 9 8 9 10 9 9 10 10 10 11 13 14 14 13
5 5 4 5 7 6 2 3 6 4 5 4 4 3 2 5 6 3 4 6 8 8 3 1 1 2 1 6 5 1 2 6 7 7 7 8 8 9 9 8 8 9 12 13 13 13 13 15 15 15 14 14 14 14 15 15 15 17 17 17 16 15 14 14 13 12 12 11 11 10 10 10 9 9 8 8 8 7 7 7 7 8 9 9 8 9 10 9 9 10 10 9 11 13 14 13 13
5 5 6 7 6 5 5 5 5 4 4 4 2 5 4 4 3 1 3 5 6 6 3 1 2 3 3 3 4 2 6 4 5 5 6 7 7 9 9 8 7 9 12 13 13 13 13 14 15 14 13 12 12 13 13 13 14 15 15 16 16 14 13 13 13 12 11 10 10 9 8 8 8 8 7 7 7 7 6 6 6 7 7 8 8 9 9 9 8 9 9 9 12 14 14 13 13
5 5 6 7 4 2 4 4 3 5 4 2 1 6 5 3 1 3 4 5 4 4 2 2 1 4 4 7 5 2 4 4 6 6 7 9 9 11 9 7 7 9 12 13 12 13 13 14 14 13 12 11 12 12 11 12 13 13 14 15 14 13 12 12 12 11 10 10 9 8 8 7 7 7 7 6 6 5 5 4 4 5 6 7 8 9 10 9 8 9 9 10 13 14 13 13 12
6 6 5 6 3 1 3 4 4 6 2 1 1 4 4 3 3 5 5 5 3 3 3 3 1 5 6 6 7 5 3 2 6 7 8 10 10 11 10 8 8 10 12 13 12 12 13 13 13 12 11 11 11 11 10 11 12 12 14 14 12 12 11 11 11 10 10 9 9 8 8 7 8 8 7 7 6 4 4 5 4 4 6 7 8 9 10 10 9 9 10 11 13 14 14 14 13
7 7 6 6 3 2 7 5 5 4 2 1 4 1 2 4 4 5 6 5 1 2 4 3 3 5 5 4 6 8 5 4 6 9 11 12 11 11 10 9 9 11 12 14 13 13 13 13 13 12 11 11 10 11 10 10 11 12 14 13 11 11 11 10 10 10 9 9 9 8 8 8 8 8 8 8 7 4 5 5 5 5 6 7 8 10 11 11 10 10 11 11 12 14 15 15 13
7 6 3 5 4 4 7 5 4 3 3 1 4 4 5 6 5 7 7 5 2 1 3 3 5 5 5 4 4 7 8 11 13 15 15 13 12 11 10 9 10 11 12 13 13 13 14 13 13 12 11 11 10 10 10 10 11 11 13 12 11 11 11 10 9 9 9 9 9 9 8 8 8 8 8 8 7 4 4 4 5 6 7 9 11 11 11 11 11 11 12 11 11 14 16 16 13
9 6 2 5 6 4 6 4 3 2 1 2 4 5 7 8 7 8 8 7 4 1 1 2 5 4 7 7 7 7 9 14 16 16 14 13 12 11 10 9 10 11 11 12 13 14 14 13 13 12 11 10 10 10 9 9 10 11 12 12 11 11 10 10 9 9 9 9 9 9 8 8 8 7 7 7 7 4 3 4 4 6 8 11 13 12 11 11 11 11 11 11 12 14 15 15 13
7 6 4 5 6 4 5 4 3 2 2 3 4 6 7 7 7 7 8 6 2 1 4 2 3 6 9 10 8 6 8 14 15 14 13 13 13 11 11 10 10 11 12 11 12 13 13 13 12 11 11 10 9 9 9 9 11 12 12 11 11 11 10 10 10 10 10 9 9 9 8 8 7 7 7 7 6 4 3 4 4 5 9 11 12 11 10 11 11 11 12 11 13 14 13 13 11
7 5 4 5 6 5 5 4 4 3 3 3 5 4 4 5 6 6 7 4 0 3 5 3 6 11 11 9 7 6 10 13 14 16 14 13 13 12 11 10 10 11 11 11 12 12 12 11 10 10 9 9 9 9 10 11 12 12 12 11 10 11 10 10 10 10 10 9 9 8 8 7 7 7 7 7 6 5 3 4 4 5 8 10 11 11 10 10 9 11 12 11 13 13 12 11 10
7 6 5 6 6 4 3 3 3 2 3 4 2 2 3 3 2 4 5 3 4 6 6 3 6 8 9 8 6 8 11 11 14 17 15 14 14 12 11 10 10 10 11 11 11 12 12 11 10 9 9 9 10 10 11 12 12 11 10 10 10 10 10 9 9 9 9 9 8 8 8 8 7 7 7 7 7 5 4 4 5 6 8 10 10 9 8 8 9 12 14 13 13 13 12 11 10
7 6 7 5 4 3 3 3 3 2 3 2 2 4 2 0 0 1 3 5 6 8 8 6 7 7 8 8 7 8 9 11 15 16 15 14 13 13 12 12 11 11 11 11 12 12 11 10 10 9 10 10 10 10 11 11 10 10 10 10 10 9 9 8 8 8 8 8 8 8 9 9 9 8 7 7 7 6 5 4 6 7 8 9 9 8 7 7 11 14 14 14 13 12 11 10 9
7 5 7 5 3 3 3 3 4 3 3 5 4 4 3 4 3 2 5 7 7 8 9 9 7 8 8 7 6 6 8 13 15 16 16 14 14 14 13 13 12 12 11 10 11 11 10 9 9 9 8 9 9 8 8 9 9 9 9 9 9 9 8 8 8 8 8 8 8 8 9 10 10 10 8 7 8 7 5 5 6 7 8 9 9 8 8 9 13 14 14 14 12 11 10 9 8
7 4 6 4 4 5 4 2 2 3 4 6 5 4 6 6 3 5 6 6 10 9 8 10 6 4 6 6 6 8 12 16 16 16 17 15 15 15 14 14 13 12 11 10 9 9 9 8 8 7 6 6 7 6 6 6 7 7 8 8 8 8 7 6 6 6 6 6 6 7 8 8 9 9 9 8 7 7 5 4 6 7 8 9 10 8 9 10 13 14 14 14 12 10 10 9 8
6 5 6 4 5 5 5 4 3 5 5 6 6 4 7 7 4 6 6 5 10 9 8 10 8 4 7 7 10 14 17 18 17 17 18 17 16 15 14 13 13 12 11 10 9 7 7 7 6 5 4 3 3 4 5 4 5 6 6 7 7 7 6 5 5 5 4 4 4 5 6 7 7 7 8 7 6 6 5 4 5 7 8 9 10 9 9 10 13 15 14 13 12 10 10 9 9
5 6 6 4 6 5 5 6 4 6 5 6 6 1 5 9 6 6 5 8 12 12 13 11 9 8 9 11 16 20 20 18 17 17 16 16 14 13 12 11 12 11 10 9 8 7 5 5 5 4 3 2 2 3 4 3 4 5 5 6 7 6 5 5 4 4 4 4 4 4 4 5 5 5 6 5 5 5 5 5 5 6 8 9 10 9 9 10 12 13 13 12 12 10 10 8 8
6 6 6 5 6 5 5 5 5 5 5 6 6 2 4 8 7 5 5 11 14 13 14 12 13 13 14 18 21 21 19 18 16 15 14 12 11 10 10 9 9 9 9 8 7 6 4 4 4 3 3 2 2 2 2 2 2 4 4 5 7 5 4 5 4 3 3 3 3 3 2 2 2 3 4 4 4 6 5 4 5 5 7 9 10 9 9 10 11 12 11 11 10 9 9 7 7
7 5 5 5 5 5 3 2 3 3 2 5 6 1 4 8 4 1 4 11 12 11 11 11 15 15 15 18 19 20 18 15 13 12 11 9 9 9 8 8 8 8 7 7 6 5 4 4 4 4 3 3 3 2 2 2 2 2 3 3 5 5 4 4 3 2 3 2 2 2 1 1 1 2 3 4 3 6 5 4 5 6 7 9 10 10 9 9 10 10 10 10 8 7 8 7 7
6 5 5 6 5 4 2 2 1 1 2 3 7 2 4 11 7 4 7 11 11 9 7 7 13 14 14 16 16 16 14 12 11 10 10 10 9 8 8 8 8 7 7 7 6 6 5 5 5 4 4 3 3 3 2 2 1 1 1 1 2 3 4 4 3 2 2 2 2 2 1 1 1 1 2 3 3 4 4 4 5 5 7 9 10 11 9 8 8 8 8 8 8 7 7 7 7
5 4 2 8 3 2 4 3 3 2 3 1 6 5 8 14 10 8 8 8 9 7 6 6 11 14 13 13 12 12 12 10 8 10 10 10 10 9 10 9 8 8 8 8 7 7 6 6 5 5 5 4 4 3 3 2 1 1 1 1 1 2 2 2 2 2 2 1 1 1 1 1 1 1 1 2 2 3 3 3 3 3 5 7 8 10 10 9 8 7 7 8 8 7 7 6 6
3 2 6 7 1 2 5 4 4 3 2 3 9 10 9 10 10 12 12 9 9 8 10 10 13 15 13 11 9 9 12 10 8 11 12 10 11 12 12 11 11 10 10 8 7 7 6 6 6 5 5 5 4 4 3 3 2 2 2 1 1 1 1 1 1 1 1 1 1 1 0 1 1 1 1 2 2 3 3 3 2 2 3 4 5 7 8 10 10 8 8 8 8 7 7 6 6
1 5 5 5 2 4 5 4 3 3 2 9 12 9 7 10 12 14 17 14 12 12 14 15 17 18 14 10 8 8 10 11 11 13 14 13 15 17 15 13 13 10 9 8 7 6 6 6 6 6 6 5 5 4 3 3 3 3 2 2 2 2 1 1 1 1 1 2 2 1 1 1 1 1 2 2 2 2 3 2 2 2 2 2 3 3 5 7 8 6 6 7 7 7 7 7 7
1 7 6 5 4 4 4 4 3 3 9 14 12 10 10 14 14 14 18 16 13 15 16 18 20 19 15 10 7 9 11 12 14 15 16 14 13 12 9 9 9 8 8 6 4 4 4 5 5 6 5 5 4 4 4 4 4 3 3 2 2 2 2 2 2 2 2 2 2 2 2 2 2 1 2 1 2 2 2 2 2 2 2 2 2 2 3 4 4 4 5 6 6 6 7 7 7
4 7 6 5 5 6 7 6 7 9 12 13 13 13 14 16 17 17 18 15 14 15 16 18 19 18 16 12 10 11 12 13 15 13 11 10 9 10 8 7 7 6 7 5 4 4 4 4 4 5 5 4 4 4 4 4 4 3 3 3 3 2 2 3 2 2 2 2 2 2 3 2 2 1 1 1 1 1 1 1 1 1 1 1 1 1 1 2 2 3 5 6 6 6 6 7 7
6 8 7 7 9 9 9 10 12 12 10 11 14 16 14 13 15 17 15 13 13 13 15 15 15 16 15 13 12 12 11 12 13 10 8 7 7 8 7 5 5 5 4 3 4 5 4 3 4 5 4 4 4 4 4 3 3 3 3 3 2 2 2 2 2 1 1 1 2 2 2 2 1 1 1 1 1 1 1 0 0 0 0 0 0 1 1 1 2 2 3 5 5 6 7 7 7
8 8 9 11 13 12 10 11 13 12 12 13 17 19 16 14 12 11 11 11 12 12 14 15 14 15 13 12 12 11 11 12 12 10 8 7 7 8 6 5 6 6 4 4 5 5 4 4 4 5 4 4 4 4 4 3 3 3 3 2 2 1 1 1 1 1 1 2 2 3 3 1 1 0 1 1 1 1 1 1 1 1 1 1 1 1 1 1 2 2 3 3 4 5 6 7 7
9 8 10 11 13 14 12 11 10 9 12 13 17 20 18 16 13 11 9 9 10 12 14 15 15 13 13 12 10 10 12 12 9 7 8 7 7 8 6 6 7 7 6 5 5 5 4 4 4 4 4 4 4 4 4 3 3 3 3 2 2 1 1 1 1 2 2 3 3 3 2 2 1 0 1 2 2 2 2 2 1 1 1 1 1 1 2 2 2 3 3 3 4 4 5 6 6
8 5 7 11 11 14 14 10 8 7 7 5 6 13 16 14 13 11 9 9 9 12 13 15 14 13 13 12 9 9 12 13 7 6 8 8 9 8 7 7 6 7 6 5 4 4 4 4 4 4 3 3 4 4 3 3 3 2 2 2 2 2 1 2 2 3 3 3 3 3 3 2 1 1 1 1 2 2 2 2 1 1 1 1 2 1 2 2 2 3 3 4 4 5 5 5 6
7 5 5 8 7 10 12 7 6 7 4 4 5 4 10 10 10 9 8 9 10 11 12 13 13 12 12 11 9 9 12 12 8 7 9 9 10 8 8 6 5 5 4 3 3 3 3 3 4 3 3 4 4 4 3 3 2 2 2 2 2 2 2 2 2 3 3 3 3 3 4 3 2 2 1 1 1 1 1 1 1 1 1 2 2 2 2 2 2 2 3 4 4 5 5 5 5
6 5 5 5 5 6 10 8 4 6 4 2 3 4 6 7 7 7 7 8 9 10 11 12 12 11 12 11 10 10 11 12 12 11 11 11 10 8 7 6 5 5 3 3 3 3 3 3 4 3 3 4 4 4 3 3 2 2 2 2 2 2 2 2 2 3 3 3 3 4 4 4 3 3 3 3 2 2 1 1 1 2 2 2 2 1 2 2 2 2 3 3 4 5 5 5 5
4 4 5 4 6 5 10 11 6 7 9 5 6 7 6 6 6 5 6 8 10 10 11 12 12 12 12 12 11 11 11 13 15 15 14 13 10 8 7 6 6 6 4 4 3 3 3 3 4 4 3 3 4 4 3 3 3 3 2 2 2 1 1 2 2 3 3 3 3 4 4 5 5 4 4 4 3 3 3 2 2 2 2 2 2 1 1 2 2 2 2 2 3 4 4 5 5
2 3 3 4 7 7 8 11 8 8 11 9 8 8 6 6 6 6 6 9 11 10 11 12 13 13 12 11 10 10 11 13 15 16 15 12 10 10 9 8 8 7 5 5 4 4 4 3 4 4 3 3 3 3 2 2 3 4 4 3 2 2 1 1 2 2 3 3 3 4 4 5 5 5 4 3 3 3 3 3 2 2 2 2 2 1 1 2 2 2 2 2 3 3 4 5 5
2 2 2 2 5 7 5 8 11 12 16 16 14 13 10 8 8 8 8 9 10 10 11 12 12 12 13 11 11 10 11 11 12 14 13 12 11 10 10 9 8 7 6 6 6 5 5 5 5 5 4 3 3 3 3 2 3 3 3 3 3 2 1 1 2 2 2 2 3 4 4 4 4 4 4 3 3 2 2 3 2 2 2 2 2 2 2 2 2 2 2 2 2 3 3 4 4
2 3 4 4 6 6 6 8 9 13 18 17 15 14 12 10 9 8 8 8 10 11 11 11 12 13 13 12 11 11 12 12 12 13 12 11 10 9 9 8 8 8 9 9 8 6 6 5 5 5 5 4 4 3 3 3 3 3 3 3 2 2 1 1 2 1 1 1 2 2 3 3 2 2 3 3 3 2 2 1 2 2 2 3 3 3 3 3 3 3 3 3 3 3 3 3 3
2 3 3 7 8 7 10 12 11 14 17 15 13 13 12 11 9 8 9 8 9 11 11 10 11 12 12 12 11 11 12 12 12 12 12 11 10 10 9 9 9 9 10 11 10 9 8 6 6 6 6 5 5 4 4 4 3 2 2 2 2 2 2 2 1 1 1 1 1 1 2 2 2 1 1 1 1 2 1 1 1 1 1 3 3 3 3 3 3 4 4 4 4 4 4 3 3
3 3 5 8 10 9 11 11 10 12 14 13 14 14 12 10 8 7 8 9 9 10 11 10 10 11 11 12 12 12 13 12 13 13 13 13 12 12 11 11 11 11 12 12 12 11 10 8 7 6 5 5 5 5 4 4 3 2 2 2 1 2 1 1 1 1 1 1 1 1 1 1 1 1 1 1 1 2 2 1 2 2 2 2 2 3 3 3 3 4 4 5 5 5 5 3 3
3 5 7 7 7 6 7 7 7 9 12 13 14 16 13 10 8 5 5 8 9 9 10 10 12 12 11 11 12 13 12 12 13 14 14 15 15 15 15 14 14 13 13 13 11 11 10 9 8 7 5 5 5 6 6 5 4 4 3 3 3 2 2 2 2 2 2 2 1 1 1 2 2 2 2 2 2 3 3 3 3 3 3 3 2 2 2 2 3 3 5 5 4 5 4 3 3
2 5 5 5 6 6 7 9 10 10 10 11 14 15 13 11 10 7 6 7 8 8 8 9 10 11 10 10 10 11 11 11 11 13 14 16 16 17 16 15 15 13 12 12 11 10 9 8 8 7 6 5 5 5 6 6 6 5 5 5 4 4 3 2 2 3 3 3 3 3 3 3 3 3 3 3 3 3 3 4 4 4 4 4 3 4 4 3 4 4 5 5 5 5 4 2 2
2 3 4 5 8 7 5 7 9 9 9 13 16 14 11 11 11 9 9 8 8 8 8 9 9 11 11 10 9 9 11 11 10 11 12 14 16 18 17 15 14 12 12 12 12 10 8 8 8 7 7 7 6 6 7 8 8 7 7 6 6 6 4 3 3 4 4 4 4 4 4 4 4 4 4 4 4 4 4 4 4 4 4 4 5 6 6 6 5 5 5 5 5 6 5 3 3
5 5 5 5 7 7 7 8 10 10 13 15 14 12 8 8 10 10 9 9 10 9 10 11 10 11 11 10 9 9 10 11 10 11 11 14 18 19 17 16 13 11 11 12 12 11 10 9 8 8 9 10 9 9 9 9 8 6 6 7 6 6 6 5 5 4 4 4 5 5 5 5 5 5 5 5 6 6 6 6 6 6 6 5 5 6 7 6 6 6 6 5 5 6 6 4 4
6 8 9 6 5 10 11 13 12 7 9 9 4 5 6 6 8 9 8 10 11 10 11 11 11 10 10 9 9 10 11 11 12 12 13 15 17 18 17 16 13 11 11 11 12 12 12 11 10 9 10 11 11 11 11 11 9 7 6 7 7 7 6 6 5 5 5 5 5 5 5 6 6 6 6 6 7 7 8 8 8 7 7 7 6 6 7 6 6 6 6 6 6 6 6 6 6
6 7 10 9 11 13 4 6 8 4 5 4 4 3 6 5 7 8 9 10 11 10 11 11 10 9 9 9 8 9 10 10 11 12 14 16 16 16 16 15 14 13 12 12 12 12 12 12 12 11 11 11 11 11 11 11 11 9 8 8 9 10 9 6 4 5 6 7 7 6 7 7 7 7 7 7 7 7 8 9 9 9 8 8 7 7 7 7 7 7 6 6 6 5 5 7 7
7 9 12 13 15 10 5 6 6 4 6 6 3 6 8 5 5 6 8 10 10 10 10 10 9 9 9 9 9 10 10 10 10 11 13 15 15 14 14 14 14 14 13 13 12 12 12 12 13 13 13 13 12 12 11 10 11 11 10 10 9 12 12 10 7 7 7 7 7 7 7 7 7 7 8 8 8 8 9 9 10 10 9 8 8 8 8 7 7 7 6 6 6 6 6 7 7
9 11 13 13 14 11 9 6 7 6 6 7 6 6 6 6 5 5 6 8 9 8 9 9 8 9 9 9 9 10 10 10 10 10 12 13 13 13 13 13 13 13 13 13 13 12 11 11 13 13 14 14 14 13 13 12 11 11 11 11 11 10 10 11 11 10 10 10 9 8 7 6 6 7 8 9 9 9 9 9 10 10 10 9 9 9 8 8 8 8 8 7 7 6 6 6 6
11 12 12 11 9 8 7 4 6 5 4 6 5 2 4 6 5 5 5 5 7 7 6 7 7 7 8 8 9 9 8 8 9 11 12 12 12 12 12 12 12 12 12 12 12 12 12 12 12 13 13 13 13 13 13 12 12 11 11 11 12 12 11 11 11 10 10 12 13 12 8 6 6 6 7 9 10 10 10 10 10 10 10 10 10 9 9 9 9 9 9 8 7 7 6 6 6
13 12 10 8 6 5 4 2 4 4 4 5 4 2 2 4 5 4 4 5 5 5 5 5 6 7 7 7 7 8 7 7 8 9 11 12 12 12 12 12 11 11 10 11 11 11 12 12 12 13 13 12 12 12 13 12 12 11 11 11 11 12 13 13 12 11 10 11 13 13 12 11 9 7 6 7 9 10 10 10 11 11 10 10 10 10 9 9 10 10 10 9 9 8 7 6 6
10 8 7 6 5 5 4 4 4 3 4 3 3 1 2 2 5 5 6 6 4 4 5 6 5 6 7 6 7 7 7 7 7 8 9 9 10 11 11 10 10 9 10 10 11 11 11 12 12 13 13 13 12 12 12 12 12 11 11 11 11 12 13 13 13 12 12 12 11 11 12 12 12 11 9 8 8 9 10 11 12 12 12 11 11 11 10 10 10 10 10 10 10 9 9 8 7
5 4 5 4 4 4 4 4 3 2 5 4 3 2 2 3 4 6 8 7 5 4 4 5 5 6 6 6 6 5 5 6 6 6 7 8 9 9 10 9 9 9 9 10 10 11 11 11 13 13 13 13 13 12 12 12 11 12 11 11 11 12 12 12 12 12 12 12 11 11 12 12 13 13 12 11 10 10 10 11 13 14 14 13 13 12 12 11 11 11 11 11 11 10 10 10 9
3 3 3 1 3 3 4 4 3 3 5 5 2 2 2 4 4 6 7 5 5 5 4 5 6 5 5 5 5 5 5 5 6 6 7 8 9 9 9 8 8 8 9 9 10 10 10 10 12 12 12 13 13 13 12 12 12 11 11 11 11 11 11 12 12 12 12 12 12 12 12 12 13 13 13 13 12 12 13 12 14 16 16 15 14 14 14 13 12 12 12 12 12 11 11 11 10
1 1 2 2 2 1 1 2 3 5 6 6 3 2 2 4 4 5 5 4 5 4 4 5 4 4 4 3 4 4 5 5 5 6 6 7 8 8 7 7 7 7 8 9 9 9 9 10 11 12 12 12 13 13 12 12 12 12 12 11 11 11 11 11 11 11 12 12 12 12 12 13 13 13 13 13 13 14 14 15 16 18 18 17 16 15 15 15 14 14 13 13 13 12 12 12 11
2 1 4 1 3 3 1 3 4 3 4 5 3 1 1 2 3 4 4 5 6 5 5 4 3 4 3 2 3 4 4 5 5 5 5 7 7 7 6 6 7 7 7 8 8 8 8 9 10 10 11 12 12 13 12 12 12 12 13 13 12 12 12 12 11 12 12 12 12 12 12 13 13 14 14 13 13 14 14 15 17 18 19 19 18 17 17 16 16 16 15 15 14 14 13 13 12
2 3 0 3 4 3 1 3 4 1 3 5 3 2 3 2 4 6 6 7 7 6 5 4 3 4 2 2 3 3 4 4 4 4 5 6 7 7 6 6 7 7 7 7 7 7 8 9 9 10 10 11 12 12 12 12 12 12 12 13 13 13 13 13 13 13 13 12 12 11 12 12 13 14 15 14 14 14 14 14 17 19 20 19 18 17 17 18 18 17 17 16 16 15 14 14 14
2 2 4 3 1 1 1 2 2 4 2 4 3 4 4 4 4 7 9 9 8 7 6 5 4 4 3 3 3 3 4 3 3 3 4 5 7 7 6 6 6 6 6 7 7 7 8 9 9 9 10 10 11 11 11 11 12 11 12 12 13 13 12 12 13 13 14 13 13 12 12 12 13 13 14 14 15 15 15 15 18 20 19 17 17 17 17 18 19 19 18 17 17 16 15 15 14
5 5 4 1 1 2 2 1 2 3 2 3 4 3 4 5 4 8 11 11 10 9 7 6 6 4 3 2 2 2 2 2 1 1 3 4 5 5 5 5 5 5 6 7 7 7 8 8 9 9 9 9 10 10 10 11 11 11 11 12 12 12 12 12 12 13 13 13 13 13 13 14 14 14 14 14 15 15 15 16 18 19 17 16 17 18 18 19 20 21 19 18 17 16 16 16 15
4 4 2 2 3 1 1 1 1 1 2 3 3 3 3 3 4 8 11 11 11 9 7 6 5 4 2 1 1 1 2 1 1 0 2 3 3 4 3 4 4 5 6 7 7 6 7 7 8 9 8 8 9 10 10 10 10 11 11 12 12 12 12 12 12 12 12 12 12 13 13 14 14 14 14 15 15 15 16 16 17 17 16 16 16 18 19 19 20 21 20 19 19 19 18 18 17
1 3 2 2 0 1 1 1 2 3 1 2 3 3 2 3 2 6 9 10 10 9 7 6 5 4 3 1 0 0 1 2 1 1 1 1 2 2 2 2 4 4 5 6 6 6 7 8 9 9 9 9 9 10 10 10 11 11 11 12 12 12 12 12 12 12 12 12 12 12 13 13 14 14 14 15 15 15 16 17 17 16 16 16 15 16 18 19 19 20 21 21 22 23 22 19 17
3 1 1 1 0 2 2 2 1 2 2 1 0 2 4 4 1 3 7 8 8 8 7 6 5 5 4 2 2 2 2 2 2 2 1 1 1 1 1 2 3 3 4 5 6 6 7 8 9 9 9 10 10 11 12 12 12 12 12 13 12 12 12 13 13 12 12 12 12 13 13 14 14 14 15 15 16 16 16 16 17 16 15 15 15 15 17 19 20 21 23 24 23 23 25 23 18
Wind_Direction
260 275 269 263 240 235 222 227 242 190 246 243 205 179 137 161 313 251 190 26 347 26 5 353 190 207 78 108 122 79 40 0 23 39 85 88 110 93 105 121 120 122 121 118 119 127 129 131 136 139 142 145 148 146 142 142 144 145 143 138 136 136 137 137 137 136 136 136 138 141 144 144 139 135 132 127 125 120 119 124 128 131 128 122 122 120 118 117 117 114 111 114 122 124 122 123 124
261 265 252 245 223 235 213 210 260 196 224 233 168 160 109 163 224 219 45 19 352 3 359 8 122 156 66 85 85 55 35 36 48 63 85 109 109 86 97 113 118 125 118 111 113 121 125 130 135 137 138 141 145 144 142 141 143 147 146 143 140 138 136 134 134 133 133 135 137 141 144 146 142 138 133 131 128 126 135 142 144 140 127 119 118 117 122 123 119 114 110 110 118 124 123 125 124
244 252 227 216 209 235 236 208 255 233 226 227 152 118 125 198 194 129 33 3 350 349 359 1 117 129 230 143 128 235 78 51 61 81 106 120 110 95 104 114 123 126 114 109 114 121 123 129 133 132 133 138 142 143 142 140 140 144 145 143 139 135 133 132 131 131 132 133 136 140 144 146 145 143 142 141 137 142 151 151 157 146 127 125 122 116 120 121 117 114 107 104 117 124 124 125 125
220 238 229 222 206 221 233 219 246 255 230 224 157 129 172 206 160 86 3 357 347 329 338 252 131 63 320 108 118 123 93 74 58 75 108 102 106 112 111 118 129 123 112 119 126 121 122 128 130 128 128 133 137 139 141 140 135 135 140 140 134 132 133 132 131 130 130 130 132 136 140 145 145 146 146 143 143 160 160 151 167 157 138 136 128 123 126 121 116 117 109 108 123 128 129 131 131
217 232 234 241 237 217 233 239 252 251 240 237 147 137 171 221 227 290 330 337 321 305 304 222 149 96 61 40 22 54 85 100 82 80 99 91 105 116 113 122 133 126 116 125 130 117 119 128 126 124 125 129 133 133 137 139 133 133 139 137 131 132 134 133 132 130 129 128 127 127 128 134 137 137 138 133 139 162 162 152 167 162 156 150 137 136 134 126 123 126 117 118 129 132 133 135 136
212 211 209 240 267 354 252 240 234 235 237 318 269 133 163 237 265 289 312 307 290 283 253 214 166 113 101 55 43 51 65 119 99 89 99 104 110 113 116 126 133 129 119 119 122 118 122 126 123 121 121 127 132 134 136 137 135 135 137 135 133 136 136 133 132 130 128 128 125 122 119 120 120 120 121 119 128 142 149 161 171 169 162 152 146 143 135 131 133 135 128 129 134 133 133 133 132
212 204 188 218 211 228 249 245 239 231 125 130 269 303 211 249 282 289 294 291 233 181 219 205 177 131 105 111 77 58 58 82 101 96 102 111 109 113 122 130 132 128 119 114 120 126 127 126 122 121 121 125 131 136 137 137 138 138 138 137 138 138 136 134 131 129 128 127 125 121 118 115 114 115 115 113 119 127 134 150 158 164 164 150 151 147 139 141 142 138 137 140 141 136 134 131 129
215 219 189 225 211 199 242 244 242 250 107 155 268 280 271 274 295 288 287 286 289 178 201 184 199 175 110 133 95 74 74 83 103 102 105 113 110 120 124 127 130 124 115 113 120 124 124 125 123 124 125 126 129 134 135 137 140 141 141 140 143 140 138 134 130 130 129 127 124 120 118 115 114 116 117 115 116 128 133 127 131 142 159 154 152 151 145 148 145 140 143 147 148 144 140 137 138
204 215 201 233 231 202 232 228 212 238 186 226 248 252 262 273 285 284 283 283 289 269 179 164 217 188 113 111 95 91 88 93 105 106 111 116 114 121 121 125 125 118 113 114 119 118 121 126 126 128 127 126 127 129 133 138 141 141 143 144 145 142 139 136 133 134 131 128 125 122 119 116 114 115 117 117 121 139 145 125 121 129 148 151 150 153 149 148 144 143 150 152 154 152 150 150 153
197 210 218 225 232 217 212 203 173 159 171 223 243 252 269 284 286 276 274 284 300 115 99 83 162 137 117 109 92 85 106 114 113 112 116 116 117 117 115 118 118 115 112 114 118 118 121 125 127 128 126 127 130 132 134 139 142 144 147 148 146 143 141 139 138 138 135 133 130 124 121 119 118 118 118 120 125 137 147 128 124 129 138 143 149 154 151 149 148 152 158 159 159 158 158 160 161
196 196 234 222 216 219 198 176 161 142 147 220 239 258 305 311 292 271 263 265 339 120 124 127 124 117 111 101 95 106 123 129 118 113 114 114 114 111 111 111 112 114 113 114 115 115 116 120 125 125 129 136 140 140 139 141 145 148 151 150 145 143 141 140 142 142 142 139 134 128 124 124 123 124 124 124 128 135 147 119 115 125 131 140 149 151 152 158 162 161 160 160 161 160 159 160 162
205 174 215 223 210 209 181 162 144 145 172 210 224 51 8 317 277 256 244 204 155 132 118 113 124 119 112 102 105 126 127 121 113 112 112 114 114 111 112 106 107 110 109 112 111 111 112 114 118 121 128 135 140 139 140 145 147 151 151 147 144 142 141 142 146 145 144 141 139 139 134 131 125 126 128 129 131 135 141 115 115 128 135 144 147 145 155 174 171 160 160 161 161 160 159 157 159
216 178 201 217 216 187 148 155 138 182 183 145 74 62 30 332 37 243 159 139 134 120 89 73 117 107 95 108 113 124 122 113 113 115 116 118 118 115 114 110 108 107 108 110 107 108 109 111 113 118 126 128 131 134 140 146 149 150 147 144 143 142 144 144 147 144 142 143 146 149 148 144 134 129 128 130 130 131 133 118 122 138 147 147 140 134 140 164 164 157 160 160 158 157 159 159 160
211 187 208 204 190 188 170 174 144 177 141 91 81 80 79 65 51 64 106 116 93 90 83 67 99 104 95 116 129 133 129 122 120 119 121 120 117 117 116 113 108 104 105 106 103 103 108 112 115 122 129 127 126 128 136 145 147 145 144 146 145 145 146 146 147 146 146 149 152 156 157 153 143 137 134 131 129 128 131 126 127 141 154 147 134 129 124 143 156 155 159 158 155 156 160 162 167
205 191 219 203 172 195 188 178 124 132 111 92 81 80 91 71 61 80 81 104 83 76 88 66 55 114 136 145 146 146 139 130 123 119 120 118 117 118 115 115 111 106 106 104 100 102 108 111 115 121 125 127 124 124 130 138 139 137 143 145 144 141 138 140 143 147 148 151 155 156 159 156 148 142 135 131 130 128 131 136 135 141 154 147 138 134 124 133 149 153 156 158 157 158 164 170 175
206 197 215 207 177 185 164 166 137 118 112 97 79 85 114 93 71 81 70 97 95 79 76 62 42 94 150 151 142 140 136 129 124 122 122 120 120 118 115 115 110 106 107 106 103 102 106 108 107 100 95 109 116 122 124 133 140 136 139 140 137 132 129 132 133 137 132 134 145 149 154 150 143 141 130 125 131 132 139 149 142 145 155 153 146 142 133 134 147 153 157 161 163 166 172 179 178
200 205 209 196 180 175 152 155 125 116 124 102 92 129 120 100 87 92 99 94 91 80 74 72 66 92 122 127 134 137 133 128 128 129 127 125 123 122 121 119 113 111 112 109 107 105 99 91 84 77 77 77 80 105 117 135 152 133 132 135 129 127 131 123 114 118 108 112 124 130 148 144 141 143 128 131 141 133 141 151 146 149 158 162 157 153 146 143 150 156 162 169 172 177 180 183 183
190 204 200 184 167 145 134 123 93 113 123 102 115 170 100 95 95 113 123 87 78 74 74 86 90 95 110 122 134 134 128 128 134 136 132 131 126 122 120 118 114 113 114 109 103 98 85 73 67 68 79 73 71 73 86 122 142 126 136 139 130 135 136 115 109 113 103 105 106 113 150 163 162 145 141 167 159 138 140 146 148 153 161 169 165 160 155 150 156 162 169 176 179 185 183 186 193
196 196 186 174 137 109 94 66 76 92 85 97 109 139 87 89 87 117 96 77 72 73 76 93 100 102 114 124 131 128 126 129 135 131 122 119 114 111 111 112 111 108 107 102 95 81 69 72 68 68 73 69 68 56 57 89 114 121 143 145 137 144 138 125 135 135 121 127 115 125 147 160 178 142 165 183 154 138 145 150 152 158 164 169 168 167 163 157 160 165 173 179 179 182 185 193 199
201 201 179 136 105 103 86 11 351 30 3 112 119 162 73 63 38 27 72 78 66 70 90 101 109 119 126 124 124 123 119 116 120 118 112 109 101 96 94 93 93 94 89 83 79 70 66 66 66 64 61 57 50 40 37 46 78 109 133 142 134 134 136 142 150 148 140 139 128 128 120 125 138 126 159 155 134 138 147 155 156 162 161 161 169 173 176 176 170 170 180 185 188 194 199 205 205
190 204 118 97 93 103 77 8 333 1 333 60 114 117 63 55 48 59 81 88 56 59 103 105 115 119 113 108 107 110 104 104 115 107 97 89 85 81 77 78 78 78 75 74 74 69 64 60 57 53 50 47 39 33 25 24 41 40 71 87 84 111 127 142 139 140 136 126 118 113 125 148 152 142 147 146 163 161 161 174 169 168 155 153 169 175 180 189 187 189 193 194 204 213 214 213 213
181 84 41 72 10 47 53 357 356 358 314 61 71 74 71 67 64 67 69 67 50 68 104 105 104 100 97 97 91 98 106 109 101 86 75 60 62 61 54 55 54 54 55 55 61 62 56 53 52 49 46 42 37 33 26 24 30 23 27 36 36 69 81 101 101 97 82 45 25 357 284 211 233 208 196 191 195 186 182 192 182 174 162 158 174 177 180 186 187 196 204 206 212 216 218 215 218
176 87 61 72 15 31 29 356 17 342 39 78 77 91 111 89 70 64 63 60 61 76 94 99 95 98 111 116 103 100 98 89 73 68 66 51 46 48 43 45 48 52 57 50 48 50 44 46 49 52 49 43 40 33 33 35 38 38 32 32 30 38 47 41 30 17 12 357 347 330 310 290 269 249 230 208 198 201 195 195 187 181 184 182 181 174 177 184 186 196 210 218 219 219 221 219 218
102 97 88 82 52 43 39 32 58 46 67 82 100 108 90 77 72 66 63 61 69 80 91 97 100 107 115 108 100 96 86 76 65 60 65 65 64 73 81 86 89 98 99 91 77 62 44 47 52 57 57 52 52 44 47 51 51 52 44 39 38 37 32 23 22 8 359 344 339 336 324 319 311 284 250 227 211 214 197 193 198 196 202 198 185 173 170 182 189 198 211 224 228 226 226 228 228
88 99 100 103 78 64 70 65 69 79 82 91 100 88 74 75 73 65 63 65 72 85 97 100 105 112 114 111 108 97 86 79 76 75 84 100 113 115 114 107 105 105 105 109 99 85 59 58 60 63 69 62 63 61 61 63 58 58 52 46 37 30 18 15 16 359 351 341 346 351 343 338 329 308 272 246 227 220 197 194 206 208 220 213 194 195 176 181 190 199 212 223 231 234 232 232 236
96 101 98 95 77 61 65 66 69 82 97 101 89 74 67 74 74 66 67 76 80 90 99 100 101 103 107 111 106 98 95 93 91 95 97 102 104 95 90 92 90 82 89 90 77 82 69 60 60 59 65 59 59 59 57 63 58 55 56 50 37 24 10 8 5 353 353 7 7 2 2 359 345 319 287 255 232 222 200 192 226 236 282 295 265 263 248 229 228 221 223 228 231 236 236 235 237
119 110 96 82 71 57 51 64 75 92 102 93 82 70 61 64 72 73 78 92 97 100 103 105 102 100 100 96 98 101 100 97 98 105 102 100 95 84 77 77 79 72 69 59 56 70 67 56 55 51 51 50 49 46 46 51 48 50 52 45 39 25 358 359 355 5 25 38 18 2 12 8 10 122 186 206 222 227 218 217 228 245 269 275 293 283 272 265 260 259 252 248 247 242 240 239 239
135 124 110 93 74 52 38 52 71 101 111 97 85 73 61 60 68 74 87 102 105 107 107 105 99 95 93 88 92 99 92 85 83 95 100 91 80 76 71 62 65 65 60 56 51 55 63 57 55 52 50 48 42 40 40 41 42 46 50 45 42 31 5 350 1 26 29 32 13 354 2 352 339 164 169 177 206 218 224 227 227 246 260 269 281 269 257 254 250 258 260 263 264 257 250 244 243
147 155 130 111 87 47 28 34 58 97 120 122 99 70 52 50 66 78 87 96 104 107 105 101 96 91 91 90 88 86 89 90 84 83 88 80 71 66 65 61 60 64 58 62 69 65 66 62 57 53 47 46 42 42 39 40 43 46 56 53 41 35 19 357 10 30 32 29 12 353 356 354 336 300 189 187 209 207 216 225 219 234 245 261 263 252 253 250 250 255 254 258 258 257 254 247 244
165 188 173 135 102 40 20 21 66 90 82 267 247 77 54 45 63 85 96 104 109 107 103 99 96 92 90 89 83 81 86 94 94 85 83 77 71 62 60 63 67 75 69 69 82 80 79 77 70 55 39 36 33 37 37 39 44 46 55 54 42 31 11 7 16 31 37 39 30 10 4 9 359 334 327 299 261 221 216 223 238 261 267 262 259 256 260 254 254 255 253 254 251 252 252 248 245
175 168 194 168 117 51 30 26 51 77 66 209 186 93 77 54 58 90 110 115 111 106 104 99 96 95 92 89 88 88 86 88 88 80 76 73 67 59 54 53 55 64 65 63 66 71 77 81 80 68 47 35 24 22 18 16 20 27 44 51 48 28 13 23 25 31 37 40 44 35 19 13 10 358 350 339 322 310 296 288 283 292 286 275 263 249 249 253 255 257 258 256 251 250 249 248 247
180 180 191 159 136 104 50 37 40 73 72 102 119 96 86 70 63 92 119 123 115 110 109 105 103 100 95 94 94 94 91 86 78 66 63 66 64 60 54 47 46 47 46 48 51 61 64 78 85 77 59 46 32 24 13 4 2 358 1 18 34 30 27 43 39 37 40 38 40 44 34 22 16 10 3 351 339 333 326 321 318 315 306 292 274 250 241 244 244 243 252 259 255 251 247 248 248
185 224 178 148 148 126 61 42 51 85 77 71 100 114 104 82 76 97 121 125 120 118 113 109 109 105 100 98 96 93 89 79 66 55 52 53 51 52 50 44 41 38 34 33 36 44 42 56 74 71 62 47 34 32 17 358 349 345 342 345 359 10 23 47 47 37 37 40 40 42 36 29 23 12 8 3 346 338 335 336 329 313 308 296 280 266 246 240 229 225 231 239 252 249 245 244 244
164 194 148 120 111 117 109 67 66 86 87 77 86 100 96 84 82 97 116 124 125 124 116 112 110 106 102 99 95 87 79 72 64 60 58 55 50 45 43 39 34 29 24 22 27 28 27 37 48 53 54 45 31 16 358 342 336 335 332 334 340 348 1 16 25 24 32 37 39 43 34 27 26 7 359 359 347 344 353 352 332 313 304 291 284 277 260 253 245 231 227 222 236 250 251 246 247
207 190 166 128 87 98 119 99 84 91 92 88 90 95 92 84 80 91 109 118 120 119 116 114 109 103 100 96 89 81 76 73 69 67 64 61 57 51 44 35 28 24 16 11 14 14 18 30 37 39 37 32 20 1 348 339 334 332 328 327 325 327 331 327 344 352 5 26 36 38 20 10 13 358 348 347 345 348 1 359 332 326 308 289 287 283 276 279 279 267 255 243 238 250 260 264 265
243 210 167 126 109 102 101 98 98 96 91 90 92 94 90 83 80 85 101 113 114 116 116 113 108 104 101 95 89 85 81 75 70 65 62 61 57 51 45 34 32 33 24 16 14 14 15 19 29 31 21 13 4 354 350 338 336 344 332 324 315 306 302 293 306 317 315 335 358 11 359 344 340 315 299 317 333 321 310 303 289 272 279 291 303 307 302 302 301 300 291 279 266 256 252 264 275
149 146 110 104 106 110 109 105 106 101 93 93 96 95 88 82 81 77 94 114 115 115 115 111 108 104 100 96 92 86 80 76 73 69 65 64 60 53 46 36 33 34 29 21 14 17 18 14 19 21 13 6 357 348 340 327 329 328 308 304 303 293 287 274 264 279 300 304 315 335 329 313 299 273 258 257 257 265 265 253 256 253 267 290 316 329 328 323 317 314 302 289 278 270 260 261 282
139 129 116 114 114 112 108 109 121 117 105 103 101 94 88 85 88 85 94 106 104 106 112 109 105 101 97 93 89 85 81 76 73 70 67 66 63 58 52 44 39 34 28 21 12 11 12 11 11 8 4 357 349 338 326 316 312 307 299 295 292 290 289 281 278 292 304 300 293 280 267 253 244 251 244 236 246 256 262 260 258 266 277 283 292 297 298 301 300 301 295 283 276 281 279 280 304
134 120 108 108 126 120 96 101 115 115 111 111 104 93 88 88 87 86 88 91 92 92 95 99 102 96 86 81 82 85 86 80 72 68 65 67 67 63 57 51 48 42 34 28 21 12 6 4 360 355 352 341 332 326 319 313 306 298 293 291 289 285 279 280 293 296 291 286 276 258 251 243 243 259 257 247 248 246 255 266 264 265 269 273 270 255 246 248 259 263 270 275 275 278 270 264 309
70 103 118 129 151 151 122 124 125 112 115 119 108 96 87 90 88 83 87 96 98 93 88 89 91 86 80 79 78 81 84 82 78 72 66 66 66 63 57 52 50 46 41 39 35 27 14 2 350 342 337 332 325 319 313 308 302 295 287 284 283 281 272 261 265 271 272 275 275 267 263 262 261 272 272 265 263 253 246 251 254 257 255 259 263 259 251 241 242 247 249 260 268 271 264 248 272
47 42 102 148 168 147 129 133 122 107 119 125 115 98 77 75 85 88 93 101 105 106 101 92 86 85 85 85 82 78 77 74 71 67 59 56 57 56 53 50 48 44 41 41 40 35 26 15 359 343 335 338 339 334 327 314 305 295 281 273 265 263 259 251 248 247 254 266 272 272 273 276 276 278 280 277 274 267 258 251 249 252 250 247 250 256 254 244 242 247 247 252 255 265 273 265 255
69 50 91 144 140 109 114 127 124 124 137 145 148 105 83 73 88 100 109 106 105 106 101 94 89 88 86 81 77 73 70 65 61 58 54 53 53 53 51 47 43 40 37 36 36 34 29 23 13 358 347 345 345 344 338 326 316 305 287 281 270 260 251 245 248 251 260 268 270 272 274 277 276 275 275 276 276 271 265 259 254 256 254 247 244 249 251 243 240 241 238 245 249 251 264 268 254
97 87 114 133 105 86 81 145 144 160 130 150 235 157 117 109 95 102 110 104 102 100 95 92 89 84 77 71 66 61 62 60 58 55 52 52 51 51 49 44 40 36 32 31 33 31 27 23 19 14 7 0 355 350 344 332 325 321 308 298 291 286 277 261 252 258 266 268 265 270 276 277 274 270 269 269 271 268 264 261 256 256 256 251 246 247 248 240 238 237 231 238 249 249 250 261 256
108 133 131 126 117 114 236 220 158 142 108 104 137 126 119 120 106 112 117 107 102 97 90 88 84 79 72 66 63 59 56 55 54 53 50 50 50 48 46 42 39 34 30 29 30 29 26 23 21 20 20 17 12 7 5 353 341 339 332 322 312 301 295 292 292 286 280 274 269 271 274 274 270 265 267 269 271 268 260 257 255 253 253 252 247 245 244 239 236 235 230 234 246 249 247 253 253
116 144 134 132 140 154 212 206 136 141 129 98 96 114 119 118 130 146 138 117 107 100 93 87 80 75 69 63 61 61 61 59 58 55 52 51 49 48 46 42 39 34 31 30 31 30 28 26 26 25 25 24 21 19 17 11 0 352 344 337 333 326 314 309 313 312 302 295 292 288 278 272 268 260 263 266 269 270 263 255 253 251 250 251 248 247 244 237 233 230 228 231 237 242 241 243 243
125 144 137 143 151 160 201 181 125 148 129 94 90 127 126 120 143 166 162 142 120 109 99 88 80 73 66 60 59 59 62 63 63 61 57 53 50 48 45 41 37 32 30 29 30 31 30 30 29 28 28 26 25 23 21 19 14 4 354 345 336 331 328 324 327 330 319 308 304 304 304 295 281 269 265 265 268 272 266 258 254 251 250 249 248 250 245 235 229 226 225 226 230 236 235 233 235
132 145 141 149 147 159 197 151 143 156 107 92 89 109 144 138 156 166 143 126 118 121 114 100 91 77 65 61 58 56 58 59 61 64 60 55 50 45 40 38 35 30 27 28 27 29 31 31 30 30 29 27 25 24 23 23 22 16 7 359 345 334 330 327 326 328 327 319 311 310 312 307 300 296 286 274 272 273 268 261 257 254 251 248 248 250 247 238 231 225 223 223 224 229 229 226 229
142 152 151 157 148 160 178 160 188 176 112 109 104 139 260 157 154 157 127 117 120 124 118 110 94 75 67 62 59 57 59 61 61 62 61 57 49 41 36 34 33 29 25 25 23 24 29 29 28 29 26 24 23 23 23 22 20 19 13 8 1 350 344 339 332 329 328 325 322 318 314 306 300 298 299 295 284 279 272 265 262 258 253 248 247 250 248 241 237 229 224 223 222 222 222 221 223
168 172 170 168 147 156 160 149 171 121 111 129 129 222 268 85 112 136 133 133 130 111 101 100 86 74 70 68 69 67 64 66 66 63 61 56 44 35 32 32 33 30 24 23 21 18 22 25 25 27 25 21 20 20 20 19 17 14 11 7 3 357 353 348 341 337 335 329 324 320 315 311 303 296 297 299 292 286 280 271 265 261 257 251 247 248 249 245 240 235 230 228 224 221 219 218 220
168 167 182 179 114 144 153 133 132 115 122 140 156 256 196 117 118 135 139 136 125 122 104 87 78 75 71 67 77 83 77 72 68 63 56 48 38 30 31 33 33 31 23 19 17 15 18 22 22 25 27 24 21 20 19 17 16 13 10 6 0 357 352 347 341 337 334 329 323 317 312 310 307 301 300 299 293 287 285 279 270 262 260 257 251 248 248 246 240 237 236 233 229 226 222 219 222
91 2 291 329 48 88 150 135 130 120 127 145 165 245 173 137 131 134 142 141 136 139 120 97 86 87 82 78 85 85 83 77 68 66 58 47 37 31 36 38 33 31 24 15 13 16 18 21 23 25 28 27 24 23 21 19 17 15 14 11 6 1 354 347 343 337 331 325 320 318 314 310 307 302 299 297 293 289 285 283 278 269 263 260 255 250 246 245 241 236 237 235 231 229 224 220 222
84 288 279 344 18 4 73 47 42 89 141 146 151 208 98 99 132 149 166 169 162 153 135 128 111 100 93 86 84 77 77 74 67 66 56 45 39 36 41 41 32 27 23 19 15 18 21 20 22 26 26 26 25 24 24 22 21 19 18 16 11 7 0 354 347 341 335 326 318 314 312 312 311 307 303 298 293 288 283 282 280 274 267 261 257 252 246 244 241 236 237 236 231 229 226 222 222
150 197 295 55 17 340 145 89 47 249 190 134 151 194 148 163 183 180 190 184 176 173 165 158 131 119 116 94 84 76 77 69 56 53 46 37 33 34 36 36 33 24 21 25 20 19 23 18 17 22 22 20 21 21 20 19 18 18 17 14 10 6 2 357 351 345 340 333 325 317 311 311 311 310 309 304 295 291 288 286 279 272 268 264 261 255 249 246 243 239 237 237 234 230 227 224 222
289 142 92 85 60 306 249 111 132 216 170 121 190 205 177 201 186 172 190 193 187 187 183 170 157 156 146 114 93 77 74 69 58 49 43 37 30 28 26 26 33 28 24 28 25 22 23 19 16 16 15 15 15 14 13 13 11 11 9 7 5 3 0 357 353 348 344 340 335 329 322 318 315 313 310 306 300 297 297 294 286 277 271 265 261 257 253 248 244 240 238 238 237 232 229 227 223
15 81 102 234 204 149 175 135 168 197 122 132 181 183 210 227 181 170 190 194 190 189 189 182 174 174 166 138 120 103 89 86 83 40 40 37 29 29 26 22 25 28 28 27 25 23 20 19 17 15 12 11 12 9 7 6 4 3 1 359 358 357 355 354 352 350 346 344 342 337 332 326 323 319 314 308 304 300 297 292 289 287 280 271 263 258 254 250 244 240 237 236 238 235 232 231 226
80 118 155 279 333 8 115 99 293 261 131 150 160 166 217 214 160 171 185 189 189 189 191 191 183 181 187 188 141 128 136 158 230 356 52 40 27 31 28 18 13 18 24 22 19 16 15 16 15 13 12 9 8 4 359 358 356 353 351 349 348 347 346 346 346 346 345 343 343 341 337 332 328 324 319 313 306 300 296 290 287 286 283 276 269 263 259 256 250 242 236 236 236 235 235 236 232
151 183 159 127 44 327 103 105 318 311 208 159 161 164 134 76 119 168 173 181 186 186 190 192 190 190 190 195 187 134 160 171 216 273 97 75 43 35 22 16 9 8 16 16 12 9 9 12 9 5 5 3 360 355 351 348 343 340 338 337 337 335 336 338 337 337 337 337 339 338 336 333 329 326 322 318 311 304 299 294 290 286 282 278 274 270 265 261 256 248 241 238 233 229 230 235 236
3 14 65 52 129 217 218 158 140 315 331 359 217 151 98 59 34 173 164 175 183 184 189 194 195 196 194 192 189 215 223 193 196 213 194 157 96 33 1 8 7 9 12 6 5 4 3 2 359 357 358 356 351 346 343 340 334 331 329 328 328 327 329 330 327 327 328 330 332 333 333 332 327 326 323 320 316 310 303 298 294 290 285 280 275 271 266 262 260 254 245 240 234 226 224 227 235